Location: ???????
(55.2903°N, 39.1554°E)
Time: 20:11:19
(UTC+00:00)

Cosmos 972 Rocket - Pass Details

Date: 14 April 2024
Orbit: 713 x 1150 km, 75.8° (Epoch: 17 May)

Event Time Altitude Azimuth Distance (km) Brightness Sun altitude
Exits shadow 00:07:56 28° 215° (SW) 1,498 4.9 -16.7°
Maximum altitude 00:10:53 74° 295° (WNW) 816 4.0 -16.4°
Drops below altitude 10° 00:15:58 10° 22° (NNE) 2,259 7.5 -15.9°
Sets 00:18:14 0° 24° (NNE) 3,159 8.6 -15.7°
